Total_Precipitation_Accumulation
3.31 3.45 3.32 3.35 3.09 3.18 3.40 3.44 3.08 3.21 3.10 3.05 2.89 2.72 2.70 2.44 2.22 2.15 2.19 2.33 2.24 2.21 2.40 2.49 2.39 2.35 2.33 2.14 1.94 1.70 1.51 1.40 1.26 1.10 1.02 1.00 0.97 0.90 0.86 0.76 0.70 0.60 0.56
2.86 2.91 2.82 2.93 2.79 2.82 2.90 2.88 2.81 3.16 3.24 3.13 2.75 2.49 2.44 2.45 2.35 2.23 2.37 2.45 2.41 2.18 2.28 2.63 2.81 2.79 2.82 2.65 2.38 2.11 1.85 1.66 1.39 1.15 1.07 1.05 0.99 0.99 1.05 1.07 1.09 0.82 0.69
2.49 2.54 2.58 2.58 2.61 2.49 2.47 2.43 2.49 2.78 2.84 2.75 2.54 2.31 2.29 2.32 2.38 2.35 2.28 2.37 2.40 2.39 2.33 2.48 2.75 2.84 3.05 3.12 2.96 2.58 2.26 1.93 1.57 1.22 1.04 0.99 0.94 0.87 0.94 1.02 1.07 0.91 0.83
2.19 2.29 2.20 2.18 2.19 2.12 2.12 2.31 2.35 2.56 2.77 2.83 2.78 2.41 2.40 2.44 2.29 2.36 2.35 2.33 2.64 2.42 2.63 2.75 2.75 2.73 3.12 3.47 3.58 3.41 2.95 2.30 1.81 1.50 1.24 1.10 1.04 0.95 0.90 0.92 0.94 0.94 0.86
2.03 2.12 2.18 2.23 1.93 1.97 2.07 1.96 2.25 2.42 2.72 2.80 2.37 2.35 2.16 2.13 2.15 1.99 2.22 2.15 2.36 2.48 2.69 2.74 2.82 2.73 3.09 3.80 4.33 4.51 4.01 3.15 2.46 2.08 1.85 1.64 1.45 1.20 1.04 1.01 0.96 0.94 0.90
2.05 2.08 1.97 1.90 1.70 1.88 2.19 2.32 2.71 2.64 2.57 2.55 2.10 2.29 2.07 1.79 1.87 1.99 1.99 2.15 2.20 2.04 2.35 2.70 2.92 2.46 2.82 3.56 4.09 4.54 4.76 4.34 3.57 2.88 2.53 2.30 2.11 1.67 1.20 1.06 1.06 1.02 0.93
2.11 2.17 1.99 2.08 1.82 1.88 2.00 2.04 2.31 2.43 2.35 2.35 2.68 2.76 2.29 1.85 1.88 1.86 1.85 2.13 2.16 2.17 2.55 2.96 3.07 2.95 2.56 2.48 2.65 3.32 4.22 4.75 4.60 3.89 3.33 2.89 2.61 2.12 1.57 1.27 1.14 1.09 1.07
2.07 1.92 2.12 1.93 1.86 2.05 2.06 2.11 2.33 2.43 2.34 2.39 2.64 3.00 2.73 2.66 2.28 1.66 1.90 2.04 2.06 2.30 2.40 2.54 2.85 3.16 2.80 2.82 2.13 2.20 3.09 3.88 4.64 4.65 4.00 3.26 2.91 2.58 2.11 1.74 1.50 1.30 1.19
1.90 1.99 1.96 2.02 2.10 1.81 2.04 2.19 2.20 2.38 2.47 2.38 2.38 2.77 2.80 2.80 2.44 1.86 1.75 1.84 2.03 2.34 2.35 2.47 2.34 2.58 2.77 3.09 2.87 2.21 2.31 2.63 3.59 4.56 4.57 3.80 3.11 2.61 2.37 2.22 2.05 1.75 1.49
1.86 1.81 1.88 2.16 2.26 1.97 2.18 1.77 1.89 2.20 2.40 2.33 2.39 2.25 2.21 2.37 2.55 2.42 2.07 1.86 1.95 2.09 2.19 2.24 2.37 2.56 2.71 3.02 3.01 2.26 1.73 1.82 2.55 3.70 4.43 4.24 3.63 2.94 2.61 2.65 2.91 2.85 2.37
2.17 1.85 1.86 2.11 2.30 2.24 2.27 2.08 2.28 2.08 1.99 2.00 2.10 2.17 2.19 2.12 1.97 2.24 2.35 2.20 2.03 1.78 1.78 1.86 2.00 2.11 2.19 2.58 2.87 2.15 1.71 1.72 1.93 2.52 3.13 3.54 3.56 3.30 3.04 3.14 3.71 4.09 3.90
2.21 2.06 2.02 2.27 2.27 2.23 2.33 2.25 2.24 2.09 2.06 2.06 1.98 1.94 2.23 2.23 2.09 2.23 2.09 2.06 1.99 1.59 1.52 1.60 1.68 1.76 1.90 2.18 2.11 1.91 1.96 2.04 1.91 1.92 2.02 2.30 2.69 2.95 3.17 3.37 3.75 4.24 4.50
2.01 2.10 2.17 2.37 2.27 2.21 2.16 2.25 2.24 2.22 2.24 2.26 2.14 1.96 1.98 2.06 2.12 2.14 2.13 1.86 1.73 1.54 1.59 1.54 1.53 1.72 1.83 2.27 2.37 2.14 2.04 2.21 1.94 1.73 1.65 1.66 1.81 2.10 2.39 2.71 3.19 3.70 4.14
2.04 2.14 2.22 2.11 2.06 2.08 1.95 2.21 2.11 2.07 2.16 2.19 2.09 2.38 2.26 1.94 2.06 2.09 2.20 2.37 2.18 1.97 1.95 1.89 1.84 1.99 2.18 2.35 2.53 2.33 2.00 1.92 1.65 1.53 1.48 1.44 1.49 1.57 1.72 1.89 2.15 2.50 2.78
1.95 2.05 2.04 2.07 2.06 2.05 2.11 2.30 2.20 2.19 2.33 2.16 2.16 2.53 2.36 2.04 2.00 2.03 2.16 2.44 2.72 2.43 2.20 2.17 2.24 2.28 2.32 2.32 2.38 2.16 1.97 1.85 1.63 1.46 1.39 1.34 1.34 1.34 1.35 1.40 1.50 1.67 1.84
1.78 1.94 2.02 2.10 2.12 2.04 2.08 2.25 2.13 2.24 2.33 2.29 2.31 2.41 2.36 2.15 2.15 2.15 2.25 2.45 2.71 2.67 2.35 2.17 2.37 2.41 2.30 2.13 2.35 2.24 2.01 1.90 1.61 1.39 1.25 1.22 1.25 1.29 1.31 1.32 1.31 1.38 1.45
1.81 1.88 1.96 2.04 2.05 2.06 2.17 2.26 2.14 2.29 2.32 2.41 2.36 2.32 2.29 2.49 2.50 2.29 2.37 2.41 2.61 2.82 2.62 2.34 2.45 2.44 2.33 2.14 2.13 2.10 1.99 1.91 1.69 1.61 1.40 1.30 1.25 1.23 1.23 1.25 1.32 1.36 1.35
1.89 1.92 1.99 2.09 2.03 2.11 2.25 2.20 2.17 2.26 2.33 2.32 2.43 2.61 2.55 2.65 2.60 2.48 2.58 2.56 2.64 2.89 2.82 2.59 2.52 2.51 2.41 2.33 2.22 2.03 1.75 1.69 1.68 1.83 1.62 1.43 1.35 1.32 1.27 1.22 1.19 1.16 1.12
2.01 1.99 1.94 1.99 2.13 2.31 2.33 2.17 2.15 2.17 2.12 2.06 2.23 2.49 2.75 3.13 2.96 2.74 2.58 2.50 2.54 2.63 2.86 2.66 2.50 2.66 2.54 2.45 2.35 2.02 1.80 1.74 1.48 1.58 1.62 1.46 1.31 1.19 1.13 1.10 1.08 1.04 0.98
2.00 2.09 2.10 2.09 2.13 2.16 2.14 2.13 2.18 2.21 2.18 2.03 2.04 2.14 2.30 2.60 2.78 2.89 2.63 2.45 2.52 2.64 2.79 2.75 2.74 2.96 3.02 2.88 2.62 2.24 2.08 1.93 1.73 1.45 1.48 1.39 1.30 1.20 1.14 1.08 1.05 1.03 1.02
2.05 2.24 2.26 2.22 2.17 2.10 1.96 2.13 2.25 2.15 2.20 2.12 2.07 2.03 1.90 2.03 2.21 2.39 2.28 2.54 2.67 2.62 2.70 2.78 2.93 3.32 3.34 3.14 2.64 2.36 2.26 2.17 1.94 1.63 1.53 1.34 1.24 1.14 1.12 1.14 1.11 1.05 1.01
2.50 2.55 2.41 2.34 2.28 2.04 2.16 2.17 2.19 2.20 2.28 2.24 2.16 2.12 1.96 1.84 1.84 1.96 2.02 2.20 2.42 2.45 2.53 2.69 2.81 3.04 3.12 3.06 2.83 2.56 2.33 2.19 1.95 1.73 1.69 1.57 1.39 1.29 1.17 1.06 1.16 1.16 1.13
2.66 2.65 2.69 2.63 2.51 2.53 2.48 2.14 2.07 2.08 2.16 2.19 2.29 2.34 1.97 1.66 1.84 1.79 1.89 1.92 1.88 1.99 2.15 2.34 2.52 2.64 2.96 3.09 3.06 2.63 2.46 2.29 1.99 1.85 1.85 1.70 1.60 1.41 1.20 1.13 1.22 1.10 1.10
2.63 2.59 2.51 2.42 2.39 2.33 2.30 2.03 1.91 1.82 1.91 1.96 1.97 2.00 1.99 1.82 1.72 1.76 1.77 1.67 1.57 1.59 1.71 1.75 1.84 2.12 2.49 2.95 3.19 2.91 2.76 2.56 2.25 1.98 1.79 1.69 1.62 1.49 1.29 1.19 1.27 1.14 1.05
2.49 2.42 2.35 2.33 2.28 2.27 2.27 2.04 1.93 1.74 1.72 1.71 1.71 1.73 1.77 1.68 1.72 1.69 1.59 1.54 1.49 1.43 1.45 1.49 1.47 1.63 1.94 2.32 2.77 2.92 2.65 2.32 2.07 1.82 1.73 1.63 1.49 1.57 1.53 1.38 1.32 1.36 1.15
2.55 2.50 2.44 2.46 2.44 2.42 2.50 2.21 2.04 1.88 1.87 1.85 1.91 1.88 1.85 1.73 1.71 1.62 1.49 1.47 1.35 1.26 1.34 1.31 1.24 1.26 1.36 1.69 2.17 2.36 2.46 2.26 1.98 1.79 1.54 1.55 1.47 1.58 1.62 1.39 1.22 1.22 1.18